www.pogodaiklimat.ru

Погода и климат >> Архив погоды >> Таиланд >> Nan Agromet


ПОГОДА в Nan Agromet

  • Прогноз погоды в Nan Agromet
  • Монитор погоды в Nan Agromet
  • Климат города

АРХИВ ПОГОДЫ в Nan Agromet

Время (UTC), дата Ветер
(напр.,м/с)
 
Видим.   Явления Облачность Т
(С)
Тd
(С)
f
(%)
Тe
(С)
Тes
(С)
Комфортность P
(гПа)
Po
(гПа)
Тmin
(С)
Tmax
(С)
R
(мм)
R24
(мм)
S
(см)
18 10.10 штиль 0 8000 м дымка 6/3 600 м
[Sc As trans Cs]
+24.4 +22.8 91 +32 +32 очень
душно
1013.4 983.1
21 10.10 штиль 0 8000 м дымка 6/4 600 м
[Sc Ac und Ci fib]
+22.6 +21.7 95 +30 +30 очень
душно
1013.0 982.5
00 11.10 штиль 0 8000 м дымка 8/0
[Ac und Cs]
+22.5 +21.3 93 +30 +30 очень
душно
1014.7 984.2 +21.5
03 11.10 штиль 0 12 км 8/4 600 м
[Sc Ac und Cs]
+28.4 +22.3 70 +37 +43 очень
душно
1015.5 985.6
06 11.10 В 4 12 км 8/3 600 м
[Sc Ac und Cs]
+31.0 +22.2 60 +40 +45 очень
душно
1012.3 982.7
09 11.10 С 4 12 км 8/4 600 м
[Sc Ac und Cs]
+31.9 +24.3 64 +44 +45 опасность
перегрева
1010.3 980.9
12 11.10 штиль 0 10 км 8/4 600 м
[Sc Ac und Cs]
+25.8 +22.4 82 +34 +34 очень
душно
1012.7 982.6 +32.7
15 11.10 штиль 0 8000 м дымка 6/4 600 м
[Sc Ac und Ci fib]
+24.5 +22.7 90 +32 +32 очень
душно
1015.6 985.3
18 11.10 штиль 0 8000 м дымка 4/3 600 м
[Sc Ac und Ci fib]
+23.8 +22.6 93 +31 +31 очень
душно
1015.6 985.2
21 11.10 штиль 0 8000 м дымка 6/3 600 м
[Sc Ac und Cs]
+22.2 +21.6 96 +29 +29 очень
душно
1014.9 984.4
00 12.10 штиль 0 8000 м дымка 10/8 600 м
[Sc Ac As]
+23.0 +21.8 93 +31 +31 очень
душно
1016.1 985.6 +22.0
03 12.10 штиль 0 12 км 10/6 600 м
[Sc Ac As Cs]
+28.5 +22.1 68 +37 +40 очень
душно
1016.2 986.2
06 12.10 штиль 0 12 км 8/4 600 м
[Sc Ac und Cs]
+30.5 +22.4 62 +40 +49 очень
душно
1013.4 983.7
09 12.10 штиль 0 12 км 8/4 600 м
[Sc Ac und Cs]
+30.5 +24.7 71 +43 +46 опасность
перегрева
1012.2 982.6
12 12.10 штиль 0 10 км 10/4 600 м
[Sc Ac und Cs]
+27.0 +24.4 86 +38 +38 очень
душно
1012.5 982.5 +31.6
15 12.10 штиль 0 8000 м дымка 10/6 600 м
[Sc Ac As Cs]
+26.2 +24.5 90 +37 +37 очень
душно
1015.0 984.9
18 12.10 штиль 0 8000 м дымка 10/6 600 м
[Sc Ac As Cs]
+24.8 +23.6 93 +34 +34 очень
душно
1014.6 984.4
21 12.10 штиль 0 8000 м дымка 10/6 600 м
[Sc Ac As]
+23.5 +22.8 96 +31 +31 очень
душно
1013.9 983.5
00 13.10 штиль 0 8000 м дымка 10/10 600 м
[Frnb]
+23.7 +23.0 96 +31 +31 очень
душно
1015.2 984.8 +23.0
03 13.10 штиль 0 12 км 3/3 600 м
[Cu med, cong Cs]
+27.3 +23.5 80 +37 +48 очень
душно
1016.0 985.9
06 13.10 штиль 0 12 км 3/3 600 м
[Cu med, cong]
+33.0 +22.9 55 +43 +58 опасность
перегрева
1012.0 982.6
09 13.10 штиль 0 12 км 5/3 600 м
[Cu med, cong Ac und Cs]
+32.0 +23.8 62 +43 +47 опасность
перегрева
1010.2 980.7
12 13.10 штиль 0 10 км 5/3 600 м
[Sc Ac und Cs]
+28.4 +24.7 80 +40 +40 очень
душно
1011.2 981.4 +33.3
15 13.10 штиль 0 10 км 8/3 600 м
[Sc Ac und Cs]
+25.6 +24.4 93 +36 +36 очень
душно
1014.1 983.9
18 13.10 штиль 0 5000 м дымка 6/3 600 м
[Sc Ac und Cs]
+24.5 +23.8 96 +33 +33 очень
душно
1014.0 983.7
21 13.10 штиль 0 6000 м дымка 6/3 600 м
[Sc Ac und Cs]
+24.0 +23.3 96 +32 +32 очень
душно
1012.6 982.3
00 14.10 штиль 0 12 км 3/0
[Cs]
+22.0 +21.2 95 +28 +29 душно 1013.9 983.3 +21.8
03 14.10 штиль 0 12 км 1/1 600 м
[Cu hum]
+28.4 +23.5 75 +39 +52 опасность
солнечного
удара
1014.7 984.8
06 14.10 штиль 0 12 км 3/3 600 м
[Cu hum]
+32.5 +23.1 58 +43 +58 опасность
перегрева
1010.5 981.1
09 14.10 штиль 0 12 км 3/3 600 м
[Cu med, cong]
+33.8 +22.8 53 +44 +48 опасность
перегрева
1008.4 979.2
12 14.10 штиль 0 10 км ясно +29.3 +23.8 72 +40 +40 очень
душно
1009.7 980.0 +34.0
15 14.10 штиль 0 10 км ясно +26.5 +24.3 88 +37 +37 очень
душно
1012.4 982.3
18 14.10 штиль 0 6000 м дымка ясно +24.0 +23.0 94 +32 +32 очень
душно
1012.6 982.3
21 14.10 штиль 0 5000 м дымка ясно +23.0 +22.2 95 +31 +31 очень
душно
1010.8 980.5
00 15.10 штиль 0 500 м туман ?/? +23.0 +22.2 95 +31 +31 очень
душно
1013.4 983.0 +22.8
03 15.10 штиль 0 12 км {туман} 3/3 600 м
[Cu med, cong]
+28.0 +24.1 79 +39 +49 очень
душно
1014.6 984.6
06 15.10 штиль 0 12 км {туман} 3/3 600 м
[Cu med, cong]
+33.0 +23.2 56 +43 +59 опасность
перегрева
1012.1 982.7
09 15.10 штиль 0 12 км 3/3 600 м
[Cu med, cong]
+34.2 +21.9 49 +43 +47 опасность
перегрева
1008.0 978.8
12 15.10 штиль 0 10 км 3/0
[Cs]
+29.7 +23.3 69 +40 +40 очень
душно
1009.8 980.1 +34.5
15 15.10 штиль 0 10 км ясно +26.8 +24.2 86 +37 +37 очень
душно
1012.0 982.0
18 15.10 штиль 0 6000 м дымка ясно +24.8 +23.6 93 +34 +34 очень
душно
1012.0 981.8
21 15.10 штиль 0 5000 м дымка ясно +23.0 +22.2 95 +31 +31 очень
душно
1010.8 980.5
00 16.10 штиль 0 500 м туман ?/? +23.0 +22.2 95 +31 +31 очень
душно
1012.4 982.0 +22.8
03 16.10 штиль 0 12 км {туман} 3/3 600 м
[Cu med, cong]
+28.9 +22.9 70 +38 +49 очень
душно
1012.9 983.1
06 16.10 штиль 0 12 км {туман} 3/3 600 м
[Cu med, cong]
+34.0 +20.6 46 +41 +56 опасность
перегрева
1009.6 980.4
09 16.10 штиль 0 12 км 3/3 600 м
[Cu med, cong]
+34.5 +21.4 47 +42 +47 опасность
перегрева
1006.4 977.3
12 16.10 штиль 0 10 км 3/0
[Cs]
+29.8 +22.8 66 +39 +39 очень
душно
1008.2 978.6 +34.9
15 16.10 штиль 0 10 км ясно +27.0 +24.1 84 +37 +37 очень
душно
1011.3 981.3
18 16.10 штиль 0 6000 м дымка ясно +25.4 +24.1 93 +35 +35 очень
душно
1010.5 980.5
21 16.10 штиль 0 6000 м дымка ясно +24.0 +23.3 96 +32 +32 очень
душно
1008.7 978.5
00 17.10 штиль 0 10 км 3/0
[Cs]
+23.4 +22.6 95 +32 +33 очень
душно
1010.8 980.5 +23.2
03 17.10 штиль 0 12 км 8/6 600 м
[Sc Ac und Ci fib]
+28.5 +24.5 79 +40 +45 очень
душно
1012.1 982.3
06 17.10 штиль 0 12 км 6/4 600 м
[Sc Ac und Ci fib]
+33.0 +28.1 76 +54 +65 опасность
перегрева
1007.9 978.7
09 17.10 штиль 0 12 км {гроза} 10/6 600 м
[Sc Ac As]
+32.0 +28.3 81 +53 +54 опасность
перегрева
1005.3 976.0
12 17.10 штиль 0 12 км {гроза} 6/4 600 м
[Sc Ac und Ci fib]
+27.4 +25.4 89 +40 +40 очень
душно
1007.9 978.1 +33.6
15 17.10 штиль 0 8000 м дымка 10/6 600 м
[Sc Ac As Cs]
+26.5 +25.1 92 +38 +38 очень
душно
1009.7 979.7

 

Местоположение метеостанции Nan Agromet (Таиланд): широта 18.87 долгота 100.75 высота над уровнем моря 264 м.

В архиве по умолчанию представлена погода в Nan Agromet за последнюю неделю. Архивные данные за месяц целиком и за предыдущие месяцы, начиная с января 2011 года, Вы можете получить, выбрав интересующий диапазон дат из раскрывающегося списка и нажав кнопку "Ввод!".


*Определитесь, кто Вы:
робот инопланетянин человек

Внимание! Время в таблицах - всемирное. Для получения местного времени необходимо прибавить поправку, которая в Nan Agromet равна 7 ч.

Смотрите также архив погоды в соседних городах и на ближайших метеорологических станциях:

Погода в Nan (Таиланд) (11 км)
Погода в Tha Wang Pha (Таиланд) (28 км)
Погода в Thung Chang (Таиланд) (63 км)
Погода в Phayao (Таиланд) (94 км)
Погода в Phrae (Таиланд) (100 км)
Погода в Sayaboury (Лаос) (108 км)
Погода в Lampang (Таиланд) (145 км)
Погода в Chiang Rai (Таиланд) (153 км)
Погода в Uttaradit (Таиланд) (155 км)
Погода в Chiang Rai Agromet (Таиланд) (159 км)

Пояснения к столбцам:

Ветер - указаны скорость ветра в м/с - средняя за 10 мин, порывы в срок и между сроками (в фигурных скобках) и направление, откуда дует ветер: С - северный, СВ - северо-восточный, В - восточный, ЮВ - юго-восточный, Ю - южный, ЮЗ - юго-западный, З - западный, СЗ - северо-западный.
Видимость - горизонтальная дальность видимости в метрах или километрах. При видимости от 1 до 10 км при отсутствии осадков обычно наблюдается дымка, при ухудшении видимости до 1 км и менее - туман. В сухую погоду видимость может ухудшаться дымом, пылью или мглою.
Явления - указаны атмосферные явления, наблюдавшиеся в срок или в последний час перед сроком; фигурными скобками обозначены явления, наблюдавшиеся между сроками (за 1-3 часа до срока); квадратными скобками обозначены град или гололедные отложения с указанием их диаметра в мм.
Облачность - указаны через наклонную черту общая и нижняя облачность в баллах и высота нижней границы облаков в метрах; квадратными скобками обозначены формы облаков: Ci - перистые, Cs - перисто-слоистые, Cc - перисто-кучевые, Ac - высококучевые, As - высокослоистые, Sc - слоисто-кучевые, Ns - слоисто-дождевые, Cu - кучевые, Cb - кучево-дождевые. Подробнее классификацию облаков см. в Атласе облаков (PDF).
T - Температура воздуха - температура, измеренная на высоте 2 м над землей.
Td - Температура точки росы - температура, при понижении до которой содержащийся в воздухе водяной пар достигнет насыщения.
f - Относительная влажность воздуха - влажноcть воздуха, измеренная на высоте 2 м над землей.
Te - Эффективная температура - температура, которую ощущает одетый по сезону человек в тени. Характеристика душности погоды. При расчете учитывается влияние влажности воздуха и скорости ветра на теплоощущения человека.
Tes - Эффективная температура на солнце - температура, которую ощущает человек, с поправкой на солнечный нагрев. Характеристика знойности погоды. Зависит от высоты солнца над горизонтом, облачности и скорости ветра. Ночью, в пасмурную погоду, а также при ветре 12 м/с и более поправка равна нулю.
P - Атмосферное давление - приведенное к уровню моря атмосферное давление.
Po - Атмосферное давление - измеренное на уровне метеостанции атмосферное давление.
Tmin - Минимальная температура - минимум температуры воздуха на высоте 2 м над землей.
Tmax - Максимальная температура - максимум температуры воздуха на высоте 2 м над землей.
R - Количество осадков - Количество выпавших осадков за период времени, мм. При наведении курсора мыши на число - период времени, за который выпало указанное количество осадков.
R24 - Количество осадков - Количество выпавших осадков за 24 часа, мм.
S - Снежный покров - Высота снежного покрова, см. При наведении курсора мыши на число - состояние снежного покрова и степень покрытия местности в баллах.